Location: George Washington National Forest Helicopter Landing Site
(38.6463°N, 79.0851°W)
Time: 18:14:16
(UTC-04:00)

Tiros 1 despin weight - Pass Details

Date: 21 August 2019
Orbit: 594 x 642 km, 48.2° (Epoch: 20 September)

Event Time Altitude Azimuth Distance (km) Brightness Sun altitude
Rises 04:13:40 0° 294° (WNW) 2,862 - -25.0°
Reaches altitude 10° 04:16:19 10° 308° (NW) 1,967 - -24.6°
Exits shadow 04:17:22 15° 318° (NW) 1,666 ? -24.4°
Maximum altitude 04:20:01 24° 3° (N) 1,280 ? -24.0°
Drops below altitude 10° 04:23:46 10° 58° (ENE) 1,992 ? -23.5°
Sets 04:26:28 0° 72° (ENE) 2,907 ? -23.1°
